URO264 EGCC-EGLL

Flight info

Callsign URO264
Flight time 0h 31m
Altitude 19000
Route LISTO L612 HON
Aircraft A343/H-SDE2E3FGHIJ4J5M1RWXY/LB1D1

Departure

Time 2026-05-06 09:49
Airport Manchester Airport (EGCC)

Arrival

Time 2026-05-06 10:20
Airport London Heathrow Airport (EGLL)
Time Latitude Longitude Altitude Speed Heading
2026-05-06 09:33 53.36398 -2.28604 258 ft 0 kts 225°
2026-05-06 09:37 53.36411 -2.28583 258 ft 3 kts 225°
2026-05-06 09:37 53.36427 -2.28558 259 ft 4 kts 208°
2026-05-06 09:37 53.36450 -2.28549 259 ft 4 kts 159°
2026-05-06 09:37 53.36462 -2.28559 259 ft 0 kts 135°
2026-05-06 09:40 53.36462 -2.28558 258 ft 0 kts 135°
2026-05-06 09:40 53.36416 -2.28494 258 ft 9 kts 149°
2026-05-06 09:41 53.36353 -2.28461 258 ft 10 kts 158°
2026-05-06 09:41 53.36294 -2.28385 258 ft 11 kts 135°
2026-05-06 09:41 53.36237 -2.28288 258 ft 12 kts 135°
2026-05-06 09:41 53.36173 -2.28182 259 ft 13 kts 135°
2026-05-06 09:42 53.36105 -2.28068 258 ft 14 kts 137°
2026-05-06 09:42 53.36030 -2.27955 259 ft 15 kts 140°
2026-05-06 09:42 53.35942 -2.27852 259 ft 16 kts 161°
2026-05-06 09:42 53.35828 -2.27860 255 ft 19 kts 186°
2026-05-06 09:43 53.35682 -2.27885 247 ft 20 kts 186°
2026-05-06 09:43 53.35588 -2.27977 242 ft 19 kts 231°
2026-05-06 09:43 53.35474 -2.28139 238 ft 23 kts 201°
2026-05-06 09:43 53.35324 -2.28187 237 ft 23 kts 197°
2026-05-06 09:44 53.35199 -2.28366 239 ft 25 kts 231°
2026-05-06 09:44 53.35086 -2.28602 235 ft 26 kts 231°
2026-05-06 09:44 53.34962 -2.28833 230 ft 27 kts 226°
2026-05-06 09:44 53.34847 -2.29037 224 ft 20 kts 228°
2026-05-06 09:45 53.34770 -2.29188 221 ft 19 kts 231°
2026-05-06 09:45 53.34654 -2.29341 225 ft 23 kts 192°
2026-05-06 09:45 53.34549 -2.29294 220 ft 15 kts 138°
2026-05-06 09:45 53.34549 -2.29203 224 ft 7 kts 60°
2026-05-06 09:46 53.34572 -2.29156 225 ft 0 kts 51°
2026-05-06 09:48 53.34578 -2.29143 227 ft 7 kts 51°
2026-05-06 09:48 53.34714 -2.28860 227 ft 60 kts 51°
2026-05-06 09:49 53.35098 -2.28066 237 ft 114 kts 51°
2026-05-06 09:49 53.35690 -2.26844 321 ft 151 kts 51°
2026-05-06 09:49 53.36342 -2.25495 979 ft 149 kts 54°
2026-05-06 09:49 53.36845 -2.23946 1605 ft 160 kts 73°
2026-05-06 09:50 53.36747 -2.21998 2043 ft 185 kts 111°
2026-05-06 09:50 53.36062 -2.20072 2638 ft 202 kts 122°
2026-05-06 09:50 53.35105 -2.18104 3070 ft 234 kts 136°
2026-05-06 09:50 53.33576 -2.16902 3864 ft 254 kts 169°
2026-05-06 09:51 53.31773 -2.16913 4573 ft 270 kts 184°
2026-05-06 09:51 53.29861 -2.17266 4939 ft 277 kts 186°
2026-05-06 09:51 53.27941 -2.17644 4997 ft 279 kts 186°
2026-05-06 09:51 53.26017 -2.18004 4996 ft 278 kts 186°
2026-05-06 09:52 53.24084 -2.18338 4990 ft 279 kts 185°
2026-05-06 09:52 53.22158 -2.18656 4994 ft 278 kts 185°
2026-05-06 09:52 53.20255 -2.18964 4987 ft 276 kts 185°
2026-05-06 09:52 53.18334 -2.19274 4994 ft 276 kts 185°
2026-05-06 09:53 53.16434 -2.19576 4990 ft 276 kts 185°
2026-05-06 09:53 53.14514 -2.19664 4989 ft 275 kts 172°
2026-05-06 09:53 53.12671 -2.18812 4991 ft 273 kts 158°
2026-05-06 09:53 53.10922 -2.17620 4991 ft 273 kts 155°
2026-05-06 09:54 53.09180 -2.16387 4990 ft 273 kts 155°
2026-05-06 09:54 53.07415 -2.15144 4991 ft 273 kts 155°
2026-05-06 09:54 53.05675 -2.13929 4986 ft 273 kts 155°
2026-05-06 09:54 53.03915 -2.12706 4978 ft 273 kts 156°
2026-05-06 09:55 53.02154 -2.11486 4976 ft 273 kts 156°
2026-05-06 09:55 53.00390 -2.10269 5050 ft 272 kts 156°
2026-05-06 09:55 52.98649 -2.09069 5450 ft 276 kts 156°
2026-05-06 09:55 52.96855 -2.07832 6325 ft 279 kts 156°
2026-05-06 09:56 52.95067 -2.06599 7288 ft 282 kts 157°
2026-05-06 09:56 52.93249 -2.05349 8240 ft 286 kts 157°
2026-05-06 09:56 52.91383 -2.04068 9163 ft 290 kts 158°
2026-05-06 09:56 52.89517 -2.02790 10027 ft 295 kts 158°
2026-05-06 09:57 52.87577 -2.01463 10631 ft 309 kts 158°
2026-05-06 09:57 52.85509 -2.00050 11005 ft 329 kts 158°
2026-05-06 09:57 52.83353 -1.98578 11347 ft 347 kts 158°
2026-05-06 09:57 52.81063 -1.97015 11812 ft 361 kts 158°
2026-05-06 09:58 52.78739 -1.95429 12496 ft 367 kts 159°
2026-05-06 09:58 52.76353 -1.93802 13195 ft 373 kts 159°
2026-05-06 09:58 52.73958 -1.92172 13976 ft 376 kts 159°
2026-05-06 09:58 52.71522 -1.90516 14708 ft 379 kts 159°
2026-05-06 09:59 52.69048 -1.88838 15377 ft 384 kts 159°
2026-05-06 09:59 52.66588 -1.87170 16108 ft 387 kts 159°
2026-05-06 09:59 52.64075 -1.85468 16815 ft 391 kts 159°
2026-05-06 09:59 52.61556 -1.83765 17512 ft 394 kts 159°
2026-05-06 10:00 52.58994 -1.82034 18233 ft 398 kts 159°
2026-05-06 10:00 52.56440 -1.80312 18765 ft 403 kts 160°
2026-05-06 10:00 52.53829 -1.78554 19009 ft 406 kts 160°
2026-05-06 10:00 52.51192 -1.76781 19056 ft 416 kts 160°
2026-05-06 10:01 52.48482 -1.74960 19053 ft 419 kts 159°
2026-05-06 10:01 52.45772 -1.73140 19048 ft 419 kts 159°
2026-05-06 10:01 52.43096 -1.71346 19048 ft 419 kts 159°
2026-05-06 10:01 52.40373 -1.69523 19048 ft 419 kts 159°
2026-05-06 10:02 52.37696 -1.67727 19048 ft 419 kts 159°
2026-05-06 10:02 52.35108 -1.65446 19046 ft 422 kts 146°
2026-05-06 10:02 52.32818 -1.62448 19048 ft 422 kts 141°
2026-05-06 10:03 52.31339 -1.60356 19048 ft 423 kts 140°
2026-05-06 10:04 52.29864 -1.58253 18990 ft 423 kts 140°
2026-05-06 10:04 52.26912 -1.54056 18764 ft 417 kts 140°
2026-05-06 10:04 52.25466 -1.52008 18611 ft 410 kts 140°
2026-05-06 10:04 52.23313 -1.48970 18370 ft 406 kts 140°
2026-05-06 10:05 52.21160 -1.45942 18111 ft 405 kts 140°
2026-05-06 10:05 52.19054 -1.42984 17840 ft 404 kts 140°
2026-05-06 10:05 52.16913 -1.39993 17566 ft 401 kts 140°
2026-05-06 10:05 52.14808 -1.37057 17300 ft 399 kts 140°
2026-05-06 10:06 52.12693 -1.34110 16989 ft 394 kts 140°
2026-05-06 10:06 52.10632 -1.31241 16552 ft 391 kts 140°
2026-05-06 10:06 52.08555 -1.28354 16055 ft 390 kts 140°
2026-05-06 10:06 52.06506 -1.25509 15789 ft 380 kts 140°
2026-05-06 10:07 52.04507 -1.22736 15567 ft 387 kts 140°
2026-05-06 10:07 52.02432 -1.19863 15323 ft 390 kts 140°
2026-05-06 10:07 52.00396 -1.17046 15086 ft 387 kts 140°
2026-05-06 10:07 51.98330 -1.14191 15016 ft 386 kts 140°
2026-05-06 10:08 51.96306 -1.11397 15012 ft 374 kts 140°
2026-05-06 10:08 51.94394 -1.08757 15010 ft 352 kts 140°
2026-05-06 10:08 51.92575 -1.06250 15013 ft 333 kts 140°
2026-05-06 10:08 51.90847 -1.03872 14905 ft 324 kts 141°
2026-05-06 10:09 51.89120 -1.01485 14631 ft 323 kts 140°
2026-05-06 10:09 51.87434 -0.99179 14452 ft 319 kts 140°
2026-05-06 10:09 51.85738 -0.96866 14151 ft 318 kts 141°
2026-05-06 10:09 51.84043 -0.94547 13819 ft 320 kts 141°
2026-05-06 10:10 51.82342 -0.92235 13597 ft 315 kts 141°
2026-05-06 10:10 51.80690 -0.90002 13154 ft 311 kts 140°
2026-05-06 10:10 51.79023 -0.87775 12529 ft 307 kts 140°
2026-05-06 10:10 51.77320 -0.85774 11832 ft 305 kts 153°
2026-05-06 10:11 51.75297 -0.84835 11126 ft 302 kts 175°
2026-05-06 10:11 51.73217 -0.84666 10433 ft 301 kts 180°
2026-05-06 10:11 51.71254 -0.84625 9759 ft 302 kts 180°
2026-05-06 10:11 51.69165 -0.84603 9079 ft 298 kts 181°
2026-05-06 10:12 51.67079 -0.84577 8383 ft 296 kts 180°
2026-05-06 10:12 51.65068 -0.84550 7913 ft 287 kts 180°
2026-05-06 10:12 51.63081 -0.84523 7405 ft 282 kts 180°
2026-05-06 10:12 51.61132 -0.84493 6909 ft 283 kts 180°
2026-05-06 10:13 51.59164 -0.84462 6406 ft 278 kts 181°
2026-05-06 10:13 51.57260 -0.84429 5901 ft 275 kts 180°
2026-05-06 10:13 51.55351 -0.84402 5495 ft 271 kts 180°
2026-05-06 10:13 51.53468 -0.84399 5110 ft 268 kts 180°
2026-05-06 10:14 51.51635 -0.84401 4740 ft 263 kts 180°
2026-05-06 10:14 51.49823 -0.84415 4373 ft 255 kts 181°
2026-05-06 10:14 51.48097 -0.84447 4030 ft 246 kts 180°
2026-05-06 10:14 51.46417 -0.84233 3668 ft 237 kts 159°
2026-05-06 10:15 51.45170 -0.82701 3435 ft 223 kts 116°
2026-05-06 10:15 51.44877 -0.80418 3225 ft 207 kts 74°
2026-05-06 10:15 51.45342 -0.78280 3029 ft 201 kts 65°
2026-05-06 10:15 51.45821 -0.76239 3007 ft 187 kts 68°
2026-05-06 10:16 51.46155 -0.74313 2994 ft 178 kts 75°
2026-05-06 10:16 51.46311 -0.72329 2990 ft 180 kts 82°
2026-05-06 10:16 51.46365 -0.70326 2870 ft 177 kts 84°
2026-05-06 10:16 51.46397 -0.68396 2632 ft 173 kts 84°
2026-05-06 10:17 51.46414 -0.66481 2388 ft 170 kts 85°
2026-05-06 10:17 51.46416 -0.64617 2136 ft 161 kts 85°
2026-05-06 10:17 51.46423 -0.62870 1939 ft 157 kts 84°
2026-05-06 10:17 51.46446 -0.61118 1701 ft 154 kts 85°
2026-05-06 10:18 51.46427 -0.59446 1482 ft 143 kts 86°
2026-05-06 10:18 51.46422 -0.57916 1262 ft 135 kts 86°
2026-05-06 10:18 51.46443 -0.56411 1072 ft 135 kts 83°
2026-05-06 10:18 51.46467 -0.54900 909 ft 137 kts 84°
2026-05-06 10:19 51.46455 -0.53386 751 ft 138 kts 87°
2026-05-06 10:19 51.46452 -0.51846 561 ft 135 kts 85°
2026-05-06 10:19 51.46469 -0.50299 376 ft 138 kts 86°
2026-05-06 10:19 51.46473 -0.48772 207 ft 136 kts 83°
2026-05-06 10:20 51.46478 -0.47311 95 ft 126 kts 87°
2026-05-06 10:20 51.46487 -0.46158 94 ft 71 kts 89°
2026-05-06 10:20 51.46473 -0.45661 93 ft 35 kts 103°
2026-05-06 10:20 51.46411 -0.45435 94 ft 14 kts 128°
2026-05-06 10:21 51.46330 -0.45434 95 ft 13 kts 229°
2026-05-06 10:21 51.46317 -0.45577 93 ft 14 kts 274°
2026-05-06 10:21 51.46323 -0.45735 90 ft 15 kts 271°
2026-05-06 10:21 51.46323 -0.45909 90 ft 16 kts 270°
2026-05-06 10:22 51.46318 -0.46048 91 ft 7 kts 244°
2026-05-06 10:22 51.46276 -0.46070 92 ft 7 kts 182°
2026-05-06 10:22 51.46224 -0.46067 90 ft 5 kts 179°
2026-05-06 10:22 51.46222 -0.46067 90 ft 0 kts 179°